OBJECT E, 56747

Orbit data source: Space-Track

You're viewing an Uncataloged Satellite

Recently launched and/or uncataloged satellites may have evolving metadata. Metadata may include but not limited to: Owner, Maufacturer, Bus, Motor, and Mission.

OBJECT E, 56747 is a South Korean satellite in SSO that was launched on Thu, 25 May 2023 UTC via an NURI launch vehicle from the Naro Space Center, South Korea (NSC). Unknown objects in Earth's orbit typically refer to objects detected orbiting the Earth but have not yet been identified or cataloged. These objects could be anything from previously untracked satellites, spent rocket stages, debris from satellite collisions, or even natural meteoroids temporarily captured by Earth's gravity.

Loading next visibility...
Identifier
56747, 2023-072E
Orbit
SSO
Country
Flag of UnknownUnknown / SKOR
Related business
None
Manufacturer
Unknown
Mission
Operational Commercial Technology
Bus & Motor
Unknown
Mass
Unknown
Launch date (UTC)
2023-05-25 (2 years ago)
Launch vehicle
NURI
Launch site
Naro Space Center, South Korea (NSC)
Object type
Unknown
Shape & HBR
Box, 0.1 m
Radar Cross Section
0.035 m², Small (<0.1 m²)

Expand to show TLE details & history
Last TLE update: 10 hours ago

TLE from 10 hours ago
0 OBJECT E
1 56747U 23072E   25286.62518753  .00025136  00000-0  74030-3 0  9997
2 56747  97.5282 123.5011 0005651 138.8539 221.3131 15.35022285132395
Epoch: 2025-10-13T15:00Z
TLE epoch observation values (Epoch: 2025-10-13T15:00:16.202Z)
Latitude
-0.00002°
Longitude
-123.99169°
Altitude
466.866 km
Speed
7.631 km/s
True Right ascension
08h 14m 00s
True Declination
0° 00' 00"
Sunlit
Object was in daylight at epoch
Visualization orbit readout
Latitude
Unknown
Longitude
Unknown
Altitude
Unknown
Speed
Unknown
Apparent Right ascension
Unknown
Apparent Declination
Unknown
Sunlit
N/A
Visualization observer readout
Local Sidereal Time
19:37:35
Azimuth
Unknown
Elevation
Unknown
Doppler factor
Unknown
Orbital elements
Apogee altitude
461.668 km
Perigee altitude
453.942 km
Semi-major axis
6,835.942 km
Eccentricity
0.00057
Inclination
97.5282°
RAAN
123.5011°
Arg. of periapsis
138.8539°
True anomaly
221.27037°
Mean anomaly
221.3131°
Eccentric anomaly
221.29173°
Mean motion
3.84013 °/min
Orbital period
93.75 mins
BSTAR
0.0007403
Loading maneuver chart data...
Computing Atmospheric mass density...
Loading historical data...
Loading historical data...
Loading historical data...
Loading historical data...
Loading historical data...
Loading historical data...
Loading historical data...

Documentation

Showing up to 5 results
|